Regional Weather Roundup
Issued by NWS

Home | Current Version | Previous Version | Text Only | Print | Product List | Glossary On
Versions: 1 2 3 4 5 6 7 8 9 10 11 12 13 14 15 16 17 18 19 20 21 22 23 24 25 26 27 28 29 30 31 32 33 34 35 36 37 38 39 40 41 42 43 44 45 46 47 48 49 50
000
ASUS44 KOUN 292010
RWROK

WEATHER ROUNDUP FOR OKLAHOMA
NATIONAL WEATHER SERVICE NORMAN OK
200 PM CST THU JAN 29 2015

NOTE: "FAIR" INDICATES FEW OR NO CLOUDS BELOW 12,000 FEET WITH NO
      SIGNIFICANT WEATHER AND/OR OBSTRUCTIONS TO VISIBILITY.

OKZ001>007-009>012-014-015-017-292100-
NORTHWEST OKLAHOMA AND THE PANHANDLE

CITY           SKY/WX    TMP DP  RH WIND       PRES   REMARKS
GAGE           CLOUDY    48  25  40 N16G24    30.46F
ENID/WOODRING  PTSUNNY   50  30  46 N21G31    30.43S
$$

OKZ016-021>023-033>039-044-045-292100-
SOUTHWEST OKLAHOMA

CITY           SKY/WX    TMP DP  RH WIND       PRES   REMARKS
LAWTON/REGL    MOSUNNY   55  30  38 N20G26    30.40F
LAWTON/FT SILL PTSUNNY   54  31  41 N23G32    30.38F
FREDERICK      PTSUNNY   53  31  42 N21       30.40S
CLINTON        PTSUNNY   49  29  46 N21       30.45F
HOBART         PTSUNNY   52  30  43 N22       30.43F
ALTUS AFB      SUNNY     54  31  41 N16G23    30.43F
$$

OKZ018>020-024>031-292100-
CENTRAL OKLAHOMA

CITY           SKY/WX    TMP DP  RH WIND       PRES   REMARKS
OKLAHOMA CITY  PTSUNNY   52  29  41 N21G29    30.40S
OKC/WILEY POST PTSUNNY   54  29  38 N23G32    30.41F
OKC/TINKER AFB MOSUNNY   51  30  45 N21       30.39S
STILLWATER     SUNNY     52  28  39 N21G29    30.42R
GUTHRIE        MOSUNNY   51  28  41 N13G24    30.41F
$$

OKZ008-013-054>072-292100-
NORTHEAST OKLAHOMA

CITY           SKY/WX    TMP DP  RH WIND       PRES   REMARKS
TULSA          MOSUNNY   51  31  46 N23G32    30.38S
TULSA/JONES    MOSUNNY   52  30  43 N13G30    30.39S
PONCA CITY     MOSUNNY   51  28  41 N22G30    30.43F
BARTLESVILLE   PTSUNNY   51  30  44 N16G26    30.42F
MUSKOGEE       LGT RAIN  49  30  48 N21G33    30.38S
$$

OKZ032-040>043-046>053-073>077-292100-
SOUTH CENTRAL/SOUTHEAST OKLAHOMA

CITY           SKY/WX    TMP DP  RH WIND       PRES   REMARKS
ARDMORE/DWNTWN MOSUNNY   59  30  33 NE14G23   30.34S
MCALESTER      PTSUNNY   53  33  46 N16       30.35S
$$



USA.gov is the U.S. government's official web portal to all federal, state and local government web resources and services.